Regional Weather Roundup
Issued by NWS

Home | Current Version | Previous Version | Graphics & Text | Print | Product List | Glossary On
Versions: 1 2 3 4 5 6 7 8 9 10 11 12 13 14 15 16 17 18 19 20 21 22 23 24 25 26 27 28 29 30 31 32 33 34 35 36 37 38 39 40 41 42 43 44 45 46 47 48 49 50
000
ASUS43 KLMK 310510
RWRKY
KENTUCKY REGIONAL WEATHER ROUNDUP
NATIONAL WEATHER SERVICE LOUISVILLE KY
100 AM EDT SUN JUL 31 2016

NOTE "FAIR" INDICATES FEW OR NO CLOUDS BELOW 12,000 FEET
WITH NO SIGNIFICANT WEATHER AND/OR OBSTRUCTIONS TO VISIBILITY.

KYZ001>023-026-027-061>063-070>075-310600-
WESTERN AND SOUTH CENTRAL KENTUCKY

CITY           SKY/WX    TMP DP  RH WIND       PRES   REMARKS
PADUCAH        PTCLDY    74  71  91 CALM      29.98F
HENDERSON      CLEAR     72  66  83 CALM      29.98F
OWENSBORO      PTCLDY    74  72  93 CALM      29.99S
HOPKINSVILLE   PTCLDY    76  73  90 CALM      30.00S
BOWLING GREEN  PTCLDY    74  71  91 CALM      30.01R
GLASGOW        PTCLDY    72  72 100 CALM      30.01S
$$

KYZ024-025-028>034-038-045-046-053-310600-
NORTH CENTRAL KENTUCKY

CITY           SKY/WX    TMP DP  RH WIND       PRES   REMARKS
LOUISVILLE/SDF PTCLDY    74  70  87 S3        29.99R
LOUISVILLE/LOU PTCLDY    74  70  87 CALM      29.99S
FORT KNOX      CLEAR     70  70  98 S5        29.99R
$$

KYZ035>037-039>044-047>052-055>060-089>105-310600-
NORTHEAST KENTUCKY

CITY           SKY/WX    TMP DP  RH WIND       PRES   REMARKS
LEXINGTON      CLOUDY    72  69  90 CALM      30.02R
COVINGTON      MOCLDY    74  73  97 CALM      29.99S
FRANKFORT      CLEAR     71  68  90 CALM      30.00R
$$

KYZ054-064>069-076>088-106>120-310600-
SOUTHEAST KENTUCKY

CITY           SKY/WX    TMP DP  RH WIND       PRES   REMARKS
JACKSON        CLEAR     72  68  87 CALM      30.04R
LONDON         CLEAR     74  69  85 CALM      30.04R
SOMERSET       CLOUDY    72  72 100 CALM      30.04S
MIDDLESBORO    PTCLDY    70  70 100 CALM      30.06S
MONTICELLO     MOCLDY   N/A N/A N/A E9        30.05R
$$





USA.gov is the U.S. government's official web portal to all federal, state and local government web resources and services.